When you browse on this site, cookies collect data to enhance your experience and personalize the content and advertising you see.
Visit our Privacy Policy to learn more. By continuing to use the site, you agree to this use of cookies and data.
  • Em Portugal
  • Lista de países
  • Para 7 dias
  • Temperatura da água
  • Mapas de satélite
  • Mapa do tempo
  • Widgets de tempo
  • user-avatar
    Iniciar Sessão

    Previsão horária em Bijeljina

    Hoje, 21 Março, Quinta-feira

    Tempo Temperatura Precipitação Vento Pressão Humidade
    00:00 +7°C° 0 mm 1 m/s 767 mmHg 59%
    01:00 +6°C° 0 mm 1 m/s 767 mmHg 61%
    02:00 +6°C° 0 mm 1 m/s 767 mmHg 63%
    03:00 +5°C° 0 mm 1 m/s 767 mmHg 64%
    04:00 +5°C° 0 mm 1 m/s 767 mmHg 66%
    05:00 +5°C° 0 mm 1 m/s 767 mmHg 65%
    06:00 +5°C° 0 mm 1 m/s 767 mmHg 64%
    07:00 +6°C° 0 mm 1 m/s 768 mmHg 63%
    08:00 +8°C° 0 mm 1 m/s 768 mmHg 57%
    09:00 +10°C° 0 mm 1 m/s 767 mmHg 50%
    10:00 +11°C° 0 mm 1 m/s 767 mmHg 44%
    11:00 +12°C° 0 mm 2 m/s 767 mmHg 41%
    12:00 +13°C° 0 mm 2 m/s 766 mmHg 38%
    13:00 +15°C° 0 mm 2 m/s 766 mmHg 35%
    14:00 +15°C° 0 mm 2 m/s 766 mmHg 35%
    15:00 +15°C° 0 mm 2 m/s 765 mmHg 35%
    16:00 +15°C° 0 mm 2 m/s 765 mmHg 35%
    17:00 +13°C° 0 mm 2 m/s 765 mmHg 39%
    18:00 +12°C° 0 mm 1 m/s 766 mmHg 43%
    19:00 +10°C° 0 mm 1 m/s 766 mmHg 46%
    20:00 +10°C° 0 mm 1 m/s 766 mmHg 48%
    21:00 +9°C° 0 mm 1 m/s 766 mmHg 49%
    22:00 +8°C° 0 mm 1 m/s 766 mmHg 51%
    23:00 +8°C° 0 mm 1 m/s 766 mmHg 52%

    Amanhã, 22 Março, Sexta-feira

    Tempo Temperatura Precipitação Vento Pressão Humidade
    00:00 +7°C° 0 mm 0 m/s 766 mmHg 53%
    01:00 +6°C° 0 mm 0 m/s 766 mmHg 54%
    02:00 +6°C° 0 mm 0 m/s 766 mmHg 55%
    03:00 +6°C° 0 mm 0 m/s 766 mmHg 56%
    04:00 +5°C° 0 mm 0 m/s 766 mmHg 57%
    05:00 +6°C° 0 mm 0 m/s 766 mmHg 57%
    06:00 +6°C° 0 mm 0 m/s 766 mmHg 57%
    07:00 +7°C° 0 mm 0 m/s 766 mmHg 57%
    08:00 +9°C° 0 mm 0 m/s 766 mmHg 51%
    09:00 +12°C° 0 mm 1 m/s 766 mmHg 45%
    10:00 +14°C° 0 mm 1 m/s 765 mmHg 39%
    11:00 +14°C° 0 mm 1 m/s 765 mmHg 37%
    12:00 +15°C° 0 mm 1 m/s 765 mmHg 35%
    13:00 +16°C° 0 mm 2 m/s 764 mmHg 33%
    14:00 +16°C° 0 mm 2 m/s 764 mmHg 34%
    15:00 +17°C° 0 mm 2 m/s 763 mmHg 35%
    16:00 +17°C° 0 mm 2 m/s 763 mmHg 35%
    17:00 +15°C° 0 mm 1 m/s 763 mmHg 40%
    18:00 +14°C° 0 mm 1 m/s 763 mmHg 44%
    19:00 +11°C° 0 mm 0 m/s 763 mmHg 48%
    20:00 +11°C° 0 mm 0 m/s 763 mmHg 50%
    21:00 +11°C° 0 mm 1 m/s 764 mmHg 52%
    22:00 +11°C° 0 mm 1 m/s 764 mmHg 54%
    23:00 +10°C° 0 mm 1 m/s 764 mmHg 55%

    Depois de amanhã, 23 Março, Sábado

    Tempo Temperatura Precipitação Vento Pressão Humidade
    00:00 +10°C° 0 mm 1 m/s 763 mmHg 57%
    01:00 +9°C° 0 mm 1 m/s 763 mmHg 58%
    02:00 +9°C° 0 mm 1 m/s 763 mmHg 60%
    03:00 +9°C° 0 mm 1 m/s 763 mmHg 61%
    04:00 +8°C° 0 mm 1 m/s 763 mmHg 63%
    05:00 +9°C° 0 mm 1 m/s 763 mmHg 64%
    06:00 +9°C° 0 mm 1 m/s 763 mmHg 65%
    07:00 +9°C° 0 mm 1 m/s 763 mmHg 66%
    08:00 +11°C° 0 mm 1 m/s 763 mmHg 63%
    09:00 +13°C° 0 mm 2 m/s 762 mmHg 61%
    10:00 +15°C° 0 mm 2 m/s 762 mmHg 58%
    11:00 +16°C° 0 mm 2 m/s 762 mmHg 55%
    12:00 +17°C° 0 mm 2 m/s 761 mmHg 52%
    13:00 +18°C° 0 mm 2 m/s 761 mmHg 49%
    14:00 +18°C° 0 mm 2 m/s 761 mmHg 48%
    15:00 +19°C° 0 mm 2 m/s 760 mmHg 47%
    16:00 +19°C° 0 mm 2 m/s 760 mmHg 45%
    17:00 +18°C° 0 mm 1 m/s 760 mmHg 49%
    18:00 +16°C° 0 mm 1 m/s 760 mmHg 53%
    19:00 +13°C° 0 mm 0 m/s 761 mmHg 57%
    20:00 +12°C° 0 mm 0 m/s 761 mmHg 58%
    21:00 +11°C° 0 mm 0 m/s 761 mmHg 59%
    22:00 +11°C° 0 mm 0 m/s 761 mmHg 60%
    23:00 +10°C° 0 mm 0 m/s 761 mmHg 62%

    24 Março, Domingo

    Tempo Temperatura Precipitação Vento Pressão Humidade
    00:00 +10°C° 0 mm 0 m/s 761 mmHg 64%
    01:00 +10°C° 0 mm 1 m/s 761 mmHg 65%
    02:00 +10°C° 0 mm 1 m/s 761 mmHg 68%
    03:00 +9°C° 0 mm 1 m/s 761 mmHg 70%
    04:00 +9°C° 0 mm 1 m/s 761 mmHg 72%
    05:00 +10°C° 0 mm 1 m/s 761 mmHg 71%
    06:00 +10°C° 0 mm 1 m/s 761 mmHg 71%
    07:00 +11°C° 0 mm 1 m/s 761 mmHg 70%
    08:00 +13°C° 0 mm 1 m/s 761 mmHg 61%
    09:00 +14°C° 0 mm 0 m/s 760 mmHg 52%
    10:00 +16°C° 0 mm 0 m/s 760 mmHg 43%
    11:00 +17°C° 0 mm 0 m/s 760 mmHg 40%
    12:00 +20°C° 0 mm 1 m/s 759 mmHg 37%
    13:00 +21°C° 0 mm 1 m/s 759 mmHg 34%
    14:00 +21°C° 0 mm 1 m/s 758 mmHg 35%
    15:00 +21°C° 0 mm 1 m/s 758 mmHg 35%
    16:00 +21°C° 0 mm 1 m/s 757 mmHg 35%
    17:00 +19°C° 0 mm 1 m/s 757 mmHg 40%
    18:00 +16°C° 0 mm 0 m/s 757 mmHg 45%
    19:00 +14°C° 0 mm 0 m/s 757 mmHg 50%
    20:00 +14°C° 0 mm 1 m/s 758 mmHg 52%
    21:00 +14°C° 0 mm 1 m/s 758 mmHg 54%
    22:00 +13°C° 0 mm 1 m/s 758 mmHg 56%
    23:00 +13°C° 0 mm 1 m/s 758 mmHg 57%

    25 Março, Segunda-feira

    Tempo Temperatura Precipitação Vento Pressão Humidade
    00:00 +12°C° 0 mm 2 m/s 758 mmHg 58%
    01:00 +12°C° 0 mm 2 m/s 758 mmHg 59%
    02:00 +10°C° 0 mm 2 m/s 758 mmHg 62%
    03:00 +10°C° 0 mm 2 m/s 758 mmHg 64%
    04:00 +10°C° 0 mm 2 m/s 758 mmHg 67%
    05:00 +10°C° 0 mm 2 m/s 758 mmHg 69%
    06:00 +10°C° 0 mm 2 m/s 759 mmHg 71%
    07:00 +12°C° 0 mm 2 m/s 759 mmHg 73%
    08:00 +12°C° 0 mm 2 m/s 759 mmHg 73%
    09:00 +12°C° 0 mm 2 m/s 759 mmHg 74%
    10:00 +11°C° 0 mm 3 m/s 759 mmHg 74%
    11:00 +13°C° 0.1 mm 2 m/s 759 mmHg 71%
    12:00 +13°C° 0.1 mm 2 m/s 759 mmHg 68%
    13:00 +13°C° 0.1 mm 2 m/s 758 mmHg 65%
    14:00 +14°C° 0 mm 2 m/s 758 mmHg 62%
    15:00 +15°C° 0 mm 2 m/s 758 mmHg 58%
    16:00 +15°C° 0 mm 2 m/s 757 mmHg 54%
    17:00 +14°C° 0 mm 2 m/s 757 mmHg 58%
    18:00 +14°C° 0 mm 2 m/s 758 mmHg 61%
    19:00 +13°C° 0 mm 2 m/s 758 mmHg 65%
    20:00 +12°C° 0.1 mm 2 m/s 758 mmHg 66%
    21:00 +12°C° 0.1 mm 2 m/s 758 mmHg 66%
    22:00 +10°C° 0.1 mm 3 m/s 759 mmHg 67%
    23:00 +10°C° 0.1 mm 2 m/s 759 mmHg 67%

    26 Março, Terça-feira

    Tempo Temperatura Precipitação Vento Pressão Humidade
    00:00 +9°C° 0.1 mm 2 m/s 759 mmHg 67%
    01:00 +9°C° 0.1 mm 2 m/s 759 mmHg 66%
    02:00 +8°C° 0 mm 2 m/s 759 mmHg 68%
    03:00 +7°C° 0 mm 2 m/s 759 mmHg 70%
    04:00 +7°C° 0 mm 3 m/s 759 mmHg 72%
    05:00 +7°C° 0 mm 3 m/s 759 mmHg 69%
    06:00 +6°C° 0 mm 4 m/s 760 mmHg 66%
    07:00 +6°C° 0 mm 5 m/s 760 mmHg 63%
    08:00 +7°C° 0 mm 6 m/s 760 mmHg 57%
    09:00 +8°C° 0 mm 6 m/s 760 mmHg 50%
    10:00 +8°C° 0 mm 7 m/s 760 mmHg 43%
    11:00 +9°C° 0 mm 7 m/s 760 mmHg 41%
    12:00 +9°C° 0 mm 7 m/s 760 mmHg 38%
    13:00 +10°C° 0 mm 8 m/s 760 mmHg 35%
    14:00 +9°C° 0.2 mm 8 m/s 760 mmHg 39%
    15:00 +7°C° 0.2 mm 8 m/s 760 mmHg 42%
    16:00 +7°C° 0.2 mm 8 m/s 760 mmHg 45%
    17:00 +6°C° 0.3 mm 7 m/s 760 mmHg 50%
    18:00 +6°C° 0.3 mm 5 m/s 761 mmHg 54%
    19:00 +5°C° 0.3 mm 4 m/s 761 mmHg 58%
    20:00 +4°C° 0 mm 4 m/s 762 mmHg 60%
    21:00 +4°C° 0 mm 3 m/s 762 mmHg 63%
    22:00 +3°C° 0 mm 3 m/s 762 mmHg 65%
    23:00 +3°C° 0 mm 3 m/s 763 mmHg 66%
    Mostrar mais